Regional Weather Roundup
Issued by NWS

Home | Current Version | Previous Version | Graphics & Text | Print | Product List | Glossary On
Versions: 1 2 3 4 5 6 7 8 9 10 11 12 13 14 15 16 17 18 19 20 21 22 23 24 25 26 27 28 29 30 31 32 33 34 35 36 37 38 39 40 41 42 43 44 45 46 47 48 49 50
330
ASUS43 KFSD 101402
RWRSD

WEATHER ROUNDUP FOR SOUTH DAKOTA
NATIONAL WEATHER SERVICE SIOUX FALLS SD
800 AM CST SAT DEC 10 2016

NOTE: "FAIR" INDICATES FEW OR NO CLOUDS BELOW 12,000 FEET WITH NO
SIGNIFICANT WEATHER AND/OR OBSTRUCTIONS TO VISIBILITY.


SDZ001>005-009-010-012>017-101500-
NORTHWEST AND NORTH CENTRAL SOUTH DAKOTA

CITY           SKY/WX    TMP DP  RH WIND       PRES   REMARKS
BUFFALO          N/A      0  -5  79 SE16      29.96F WCI -20
FAITH            N/A     -1  -4  87 SE15      30.14F WCI -21
MOBRIDGE       CLOUDY    -3 -11  68 E8        30.26F WCI -18
$$

SDZ012>016-024>037-041>051-057-063-072>074-101500-
SOUTHWEST AND SOUTH CENTRAL SOUTH DAKOTA

CITY           SKY/WX    TMP DP  RH WIND       PRES   REMARKS
RAPID CTY ARPT CLOUDY     1  -3  83 E10       30.03F WCI -15
PIERRE         FLURRIES   0  -5  79 E10       30.26F WCI -16
CUSTER         CLOUDY    10   6  84 CALM      29.80F
ELLSWORTH AFB  CLOUDY     1  -2  84 E10       30.02F WCI -14
PHILIP         CLOUDY     2  -2  83 E12       30.18F WCI -15
PINE RIDGE     CLOUDY     6   3  87 NE9       29.99F WCI  -8
SPEARFISH      CLOUDY     3   0  85 E3        29.92F
WINNER         FLURRIES   7   2  80 E12       30.22S WCI  -8
$$

SDZ004>011-016>023-039-040-101500-
NORTHEAST SOUTH DAKOTA

CITY           SKY/WX    TMP DP  RH WIND       PRES   REMARKS
ABERDEEN       CLOUDY    -5 -13  68 E8        30.40F WCI -20
WATERTOWN      CLOUDY     1  -3  83 SE6       30.34F WCI -10
SISSETON         N/A     -6 -11  79 CALM      30.44F
$$

SDZ017-020-022-023-036>040-048>070-101500-
SOUTHEAST SOUTH DAKOTA

CITY           SKY/WX    TMP DP  RH WIND       PRES   REMARKS
SIOUX FALLS    LGT SNOW  10   7  87 E9        30.37F FOG     WCI  -3
HURON          LGT SNOW   5   2  87 E6        30.35F FOG     WCI  -6
CHAMBERLAIN    LGT SNOW   6   2  84 E8        30.28F WCI  -7
MITCHELL       LGT SNOW   9   6  88 E10       30.35F FOG     WCI  -5
YANKTON        CLOUDY    14  10  85 E7        30.33F VSB 1   WCI   4
$$

ABBREVIATIONS USED IN REMARKS
   TC - TEMPERATURE IN CELSIUS
  WCI - WIND CHILL INDEX
   HX - HEAT INDEX
  VSB - VISIBILITY





USA.gov is the U.S. government's official web portal to all federal, state and local government web resources and services.